Flag for Germany Weather past 2 weeks in Dorsten, North Rhine-Westphalia, Germany

Now
38 °F

Fog.


Feels Like: 36 °F
Forecast: 28 / 35 °F
Wind: 3 mph from Southwest

Location: Essen

Current Time: Dec 26, 2014 at 3:25:28 PM

Latest Report: Dec 26, 2014 at 3:00 PM


Visibility: 4 mi

Pressure: 30.35 "Hg

Humidity: 94%

Dew point: 36 °F

Location of DorstenLocation

Historic Weather in Dorsten — Graph

°F

Dorsten temperature yesterday

Maximum temperature yesterday: 42 °F (at 12:00 PM)
Minimum temperature yesterday: 34 °F (at 11:00 PM)
Average temperature yesterday: 38 °F

Past Weeks' High & Low Weather Summary

 TemperatureHumidityPressure
High53 °F (Dec 18, 6:00 PM)100% (Dec 12, 8:00 PM)30.41 "Hg (Dec 12, 8:00 PM)
Low32 °F (Dec 14, 8:00 AM)75% (Dec 12, 9:00 AM)29.38 "Hg (Dec 12, 3:00 PM)
Average43 °F92%29.98 "Hg
* Reported Dec 11 2:00 PM — Dec 26 2:00 PM, Dorsten, Weather by CustomWeather, © 2014

Note: Actual official high and low records may vary slightly from our data, if they occured in-between our weather recording intervals... More about our weather records

Advertising

Dorsten weather history for previous 24 hours

 ConditionsComfort  
Time TempWeatherWind HumidityBarometerVisibility
2:00 PM
Dec 26
38 °FFog.2 mph93%30.36 "Hg4 mi
1:00 PM38 °FFog.2 mph96%30.38 "Hg2 mi
12:00 PM36 °FFog.2 mph99%30.40 "Hg1 mi
11:00 AM35 °FFog.2 mph100%30.41 "Hg1 mi
10:00 AM34 °FLow clouds.2 mph100%30.40 "Hg1 mi
9:00 AM34 °FLow clouds.2 mph100%30.40 "Hg1 mi
8:00 AM35 °FFog.2 mph100%30.40 "Hg1 mi
7:00 AM34 °FLow clouds.3 mph100%30.39 "Hg1 mi
6:00 AM34 °FLow clouds.3 mph100%30.38 "Hg1 mi
5:00 AM33 °FFog.3 mph100%30.39 "Hg1 mi
4:00 AM34 °FFog.3 mph100%30.38 "Hg2 mi
3:00 AM33 °FPassing clouds.3 mph100%30.38 "Hg2 mi
2:00 AM34 °FFog.2 mph100%30.38 "Hg2 mi
1:00 AM34 °FPassing clouds.3 mph100%30.37 "Hg1 mi
12:00 AM34 °FFog.2 mph100%30.36 "Hg1 mi
11:00 PM
Dec 25
34 °FFog.2 mph100%30.35 "Hg2 mi
10:00 PM35 °FFog.3 mph99%30.35 "Hg4 mi
9:00 PM35 °FPassing clouds.3 mph99%30.35 "Hg7 mi
8:00 PM36 °FClear.3 mph98%30.33 "Hg7 mi
7:00 PM36 °FPassing clouds.3 mph98%30.31 "Hg10 mi
6:00 PM36 °FPassing clouds.2 mph98%30.29 "Hg9 mi
5:00 PM37 °FPassing clouds.2 mph95%30.27 "Hg10 mi
4:00 PM39 °FLight rain. Low clouds.3 mph90%30.24 "Hg7 mi
3:00 PM40 °FLight rain. Low clouds.2 mph93%30.24 "Hg22 mi
Weather by CustomWeather, © 2014

See weather overviewHow to use our weather pages